This demonstration page uses our WeatherBlox Daily Observations layout. Learn more.

Left ArrowRight Arrow

Hourly Observations for April 27, 2019

Temp ( °F °C ) Dew Point ( °F °C ) Humidity (%) Winds ( mph kmh ) Pressure ( in mb ) Visibility ( mi km ) Precip ( " mm )
12:52 am 00:52 Cloudy with Rain 55 12.8 36 2.2 49 49 N 8 13 29.90 1012 9 14 0.01 0.25
1:52 am 01:52 Cloudy with Rain 50 10 41 5 71 71 SE 13 20 29.85 1011 5 8 0.25 6.35
2:52 am 02:52 Mostly Cloudy with Light Rain 50 10 40 4.4 68 68 ESE 28 44 29.75 1007 10 16 0.24 6.10
3:52 am 03:52 Cloudy with Light Rain 50 10 43 6.1 77 77 SSE 22 35 29.67 1005 6 10 0.12 3.05
4:52 am 04:52 Cloudy 50 10 42 5.6 74 74 SSE 21 33 29.66 1004 10 16 0.04 1.02
5:52 am 05:52 Cloudy 50 10 43 6.1 77 77 SE 18 30 29.60 1002 10 16 0.01 0.25
6:52 am 06:52 Mostly Cloudy 50 10 43 6.1 77 77 SSE 17 28 29.57 1002 10 16 0.00 0.00
7:52 am 07:52 Mostly Cloudy 52 11.1 44 6.7 75 75 SE 14 22 29.56 1001 10 16 0.00 0.00
8:52 am 08:52 Mostly Cloudy 55 12.8 45 7.2 69 69 SE 8 13 29.56 1001 10 16 0.00 0.00
9:52 am 09:52 Mostly Cloudy 57 13.9 47 8.3 69 69 N 15 24 29.58 1002 10 16 0.00 0.00
9:58 am 09:58 Mostly Cloudy 56 13.3 46 7.8 70 70 N 20 31 29.59 1002 10 16 0.00 0.00
10:24 am 10:24 Cloudy 53 11.7 46 7.8 77 77 N 22 35 29.60 1003 10 16 0.00 0.00
10:52 am 10:52 Cloudy 52 11.1 45 7.2 77 77 N 17 28 29.62 1003 10 16 0.00 0.00
11:52 am 11:52 Cloudy with Drizzle 49 9.4 42 5.6 77 77 N 26 43 29.68 1005 10 16 0.00 0.03
12:52 pm 12:52 Cloudy with Drizzle 43 6.1 37 2.8 80 80 N 23 37 29.78 1008 10 16 0.00 0.03
1:52 pm 13:52 Cloudy 43 6.1 36 2.2 76 76 N 23 37 29.83 1010 10 16 0.00 0.03
2:52 pm 14:52 Cloudy 45 7.2 36 2.2 71 71 N 23 37 29.88 1012 10 16 0.00 0.00
3:26 pm 15:26 Cloudy 45 7.2 37 2.8 74 74 N 22 35 29.92 1013 10 16 0.00 0.00
3:52 pm 15:52 Cloudy 46 7.8 37 2.8 71 71 N 20 31 29.91 1013 10 16 0.00 0.00
4:52 pm 16:52 Cloudy 44 6.7 36 2.2 73 73 N 22 35 29.96 1015 10 16 0.00 0.00
5:11 pm 17:11 Cloudy 44 6.7 36 2.2 73 73 NNE 17 28 29.99 1016 10 16 0.00 0.00
5:52 pm 17:52 Cloudy 42 5.6 35 1.7 76 76 N 18 30 30.00 1016 10 16 0.00 0.00
6:52 pm 18:52 Cloudy 42 5.6 35 1.7 76 76 NNE 14 22 30.03 1017 10 16 0.00 0.00
7:06 pm 19:06 Cloudy 42 5.6 35 1.7 76 76 NNE 14 22 30.05 1018 10 16 0.00 0.00
7:52 pm 19:52 Cloudy 42 5.6 34 1.1 73 73 NE 12 19 30.00 1016 10 16 0.00 0.00
8:52 pm 20:52 Cloudy 42 5.6 33 0.6 71 71 NNE 10 17 30.05 1018 10 16 0.00 0.00
9:52 pm 21:52 Cloudy 42 5.6 33 0.6 71 71 NNE 7 11 30.08 1019 10 16 0.00 0.00
10:52 pm 22:52 Cloudy 41 5 33 0.6 73 73 NE 10 17 30.08 1019 10 16 0.00 0.00
11:26 pm 23:26 Partly Cloudy 40 4.4 32 0 73 73 ENE 10 17 30.09 1019 10 16 0.00 0.00
11:52 pm 23:52 Partly Cloudy 39 3.9 32 0 76 76 ENE 7 11 30.08 1019 10 16 0.00 0.00

Powered by AerisWeather